Tracking 30995 objects as of 6-Jul-2025
HD Live streaming from Space Station
objects crossing your sky now

STARLINK-30367

Track STARLINK-30367 now!
10-day predictions
STARLINK-30367 is classified as:


NORAD ID: 57791
Int'l Code: 2023-134W
Perigee: 565.6 km
Apogee: 566.9 km
Inclination: 43.0 °
Period: 95.8 minutes
Semi major axis: 6937 km
RCS: Unknown
Launch date: September 4, 2023
Source: United States (US)
Launch site: AIR FORCE EASTERN TEST RANGE (AFETR)
Your satellite tracking list
ONEWEB-0339
Track 1 satellite(s)




NASA's NSSDC Master Catalog

Two Line Element Set (TLE):
1 57791U 23134W   25186.91906536  .00000025  00000-0  16953-4 0  9998
2 57791  43.0030  98.1220 0000894 254.0676 106.0068 15.02532016102205
Source of the keplerian elements: AFSPC